Location: ??????
(54.7833°N, 39.1167°E)
Time: 13:21:02
(UTC+00:00)

Daily predictions for brighter satellites

Satellite Brightness Start Highest point End
(mag) Time Altitude Azimuth Time Altitude Azimuth Time Altitude Azimuth
Cosmos 2228 Rocket 3.5 18:52:15 10° S 18:56:39 50° E 19:01:05 10° NNE
MetOp-A 4.2 18:51:58 10° SSE 18:57:10 76° ENE 19:02:26 10° NNW
RESURS DK-1 2.8 18:55:18 10° NW 18:59:17 53° WSW 19:03:15 10° SSE
SL-14 R/B 3.5 18:55:41 10° S 18:59:20 50° E 19:03:03 10° NNE
Okean O Rocket 4.4 18:59:12 10° WSW 19:00:50 12° W 19:02:29 10° WNW
USA 281 3.5 18:56:10 10° SE 19:02:38 64° NE 19:09:09 10° NNW
Cosmos 1850 Rocket 4.4 18:58:17 10° S 19:03:13 45° ESE 19:08:11 10° NE
Okean 1-7 4.4 19:00:47 10° SE 19:04:19 25° E 19:07:51 10° NNE
Cosmos 2237 Rocket 4.0 19:00:18 10° NNW 19:05:02 26° NNE 19:09:45 10° E
Cosmos 2322 4.5 19:00:13 10° NNW 19:05:43 47° NE 19:11:11 10° ESE
SPOT 3 Rocket 4.1 19:01:38 10° S 19:06:41 57° WSW 19:11:48 10° NNW
Cosmos 1346 Rocket 2.7 19:03:15 10° NNW 19:07:10 87° WSW 19:11:01 10° SSE
Terra 2.9 19:02:59 10° SSW 19:07:26 41° W 19:11:56 10° NNW
OPS 8737 4.0 19:05:44 10° NW 19:08:42 85° NE 19:11:42 10° SE
Timation 1 Rocket 4.5 19:03:08 10° SSW 19:08:55 56° ESE 19:14:45 10° NE
Cosmos 2315 Rocket 4.2 19:03:32 10° NNW 19:09:56 80° W 19:16:18 10° S
Cosmos 2333 4.3 19:05:59 10° NNW 19:11:47 88° ENE 19:17:35 10° SSE
BREEZE-M DEB (TANK) 4.3 19:09:58 10° SW 19:14:26 49° SSE 19:31:03 10° E
Cosmos 1758 3.9 19:17:35 10° NNW 19:21:24 52° W 19:25:12 10° S
Cosmos 1741 Rocket 4.1 19:17:09 10° S 19:22:19 60° ESE 19:27:34 10° NNE
ALOS 2 4.3 19:19:09 10° ESE 19:22:37 23° ENE 19:26:06 10° N
Cosmos 1242 Rocket 4.2 19:21:26 10° ESE 19:22:39 12° E 19:23:51 10° ENE
Cosmos 2322 Rocket 2.8 19:19:33 10° NW 19:25:01 50° WSW 19:30:29 10° S
COSMOS 2406 4.3 19:19:52 10° WSW 19:25:29 51° NW 19:31:05 10° NNE
Cosmos 968 Rocket 3.8 19:20:54 10° S 19:25:50 48° ESE 19:30:50 10° NE
Cosmos 1814 Rocket 4.1 19:21:36 10° NNW 19:26:55 82° WSW 19:32:10 10° SSE
USA 234 3.2 19:27:18 10° ENE 19:33:52 73° SSE 19:40:24 10° WSW
Cosmos 1356 Rocket 3.5 19:31:36 10° SSW 19:35:48 84° WNW 19:40:02 10° NNE
Kosmos-1783 4.1 19:34:03 10° WNW 19:37:14 73° SW 19:43:44 10° SE
Meteor 1-21 4.3 19:32:12 10° S 19:38:00 84° ESE 19:43:52 10° NNE
Cosmos 1703 Rocket 4.5 19:34:35 11° SSE 19:38:26 35° E 19:42:30 10° NNE
Cosmos 1862 Rocket 3.6 19:35:12 10° S 19:39:36 89° SE 19:44:04 10° NNE
COSMOS 2428 3.0 19:40:18 10° NNW 19:46:00 66° NE 19:51:40 10° SE
Okean 2 3.6 19:43:37 11° S 19:47:18 55° E 19:51:15 10° NNE
Cosmos 2219 Rocket 2.4 19:46:58 10° NW 19:52:37 68° WSW 19:57:45 13° SSE
Cosmos 1455 1.9 19:49:22 10° NNW 19:52:53 89° ENE 19:55:51 14° S
Cosmos 1400 Rocket 4.4 19:49:55 10° SW 19:53:29 33° WNW 19:57:01 10° N
SL-4 R/B 2.1 19:51:08 10° W 19:54:59 54° S 19:59:06 10° ESE
Landsat 5 4.0 19:52:27 10° N 19:56:20 55° WNW 20:00:19 10° SSW
Cosmos 1707 Rocket 4.3 19:56:09 10° SSW 20:00:31 52° WNW 20:04:53 10° N
Orbus 7S? 3.3 19:58:08 10° W 20:01:43 60° N 20:04:22 10° ENE
ARIANE 5 R/B 2.7 20:01:59 13° S 20:05:47 70° WSW 20:10:08 10° NNW
ATLAS CENTAUR R/B 0.9 20:02:23 10° SW 20:05:52 67° SE 20:09:31 10° NE
Cosmos 1745 Rocket 4.4 20:00:45 12° SSE 20:06:20 52° E 20:12:29 10° NNE
SJ 16-02 1.3 20:03:14 10° SSW 20:07:33 79° ESE 20:11:54 10° NNE
Cosmos 1315 Rocket 2.8 20:04:39 11° S 20:08:27 84° ESE 20:12:29 10° NNE
Cosmos 1953 2.6 20:05:21 10° NNW 20:09:09 57° W 20:12:24 13° S
Okean 3 4.0 20:06:15 10° SSW 20:10:20 57° WNW 20:14:29 10° N
Nadezhda 1 Rocket 4.1 20:05:01 10° N 20:11:23 83° ENE 20:16:57 14° SSE
Meteor 1-4 Rocket 2.5 20:09:43 10° SSW 20:12:40 58° WNW 20:15:40 10° N
SL-27 R/B 2.9 20:11:24 10° SW 20:14:06 46° WNW 20:16:50 10° NNE
Aureole 3 4.2 20:10:22 10° SSW 20:14:16 55° WNW 20:19:12 10° N
Cosmos 2360 Rocket 3.5 20:11:04 10° NW 20:15:52 29° WSW 20:20:39 10° SSW
ATLAS 2AS CENTAUR R/B 3.6 20:12:50 10° WNW 20:18:51 34° WSW 20:24:07 12° S
GP-B 3.2 20:18:50 10° N 20:23:15 74° W 20:27:09 13° S
SL-16 R/B 4.4 20:21:28 10° WNW 20:24:13 14° W 20:26:58 10° SW
Cosmos 2333 Rocket 3.6 20:19:28 10° NW 20:24:16 28° WSW 20:29:02 10° SSW
H-2A R/B 2.6 20:23:15 15° S 20:26:44 73° WSW 20:31:01 10° NNW
Cosmos 1908 Rocket 4.3 20:26:12 10° NNW 20:30:20 44° W 20:34:00 13° SSW
Cosmos 1782 Rocket 3.6 20:28:40 10° NNW 20:32:59 73° W 20:36:24 16° S
SL-16 R/B 3.7 20:36:06 10° NNW 20:41:18 34° NE 20:46:28 10° ESE
Okean 1-7 3.9 20:37:12 10° SSW 20:41:23 47° WNW 20:45:35 10° N
Cosmos 1825 4.3 20:40:56 10° ESE 20:42:29 13° E 20:44:02 10° ENE
Cosmos 1833 4.5 20:37:19 10° SW 20:42:56 70° NW 20:48:35 10° NNE
USA 129 3.1 20:45:00 10° NE 20:45:38 14° NE 20:45:38 14° NE
USA 281 4.1 20:42:02 13° S 20:47:29 38° WSW 20:53:35 10° NW
Cosmos 2322 4.3 20:44:32 10° NW 20:49:57 45° WSW 20:54:15 15° S
Cosmos 2237 Rocket 2.3 20:44:16 10° NNW 20:50:00 78° NE 20:55:28 11° SE
BlueWalker 3 3.2 20:50:10 18° SSE 20:51:11 21° SE 20:54:01 10° E
Cosmos 2151 Rocket 4.3 20:47:02 10° N 20:51:18 45° ENE 20:55:00 13° SE
Meteor 1-24 Rocket 4.3 20:47:51 15° SSE 20:52:26 49° E 20:57:50 10° NNE
Cosmos 1408 2.0 20:50:38 21° S 20:52:29 76° E 20:55:30 10° NNE
Cosmos 405 Rocket 3.1 20:49:06 10° N 20:52:47 53° ENE 20:55:40 16° SSE
Cosmos 1300 Rocket 3.9 20:49:29 10° NNW 20:53:42 55° W 20:56:57 16° S
Cosmos 1242 Rocket 2.9 20:52:09 14° SW 20:54:21 41° WNW 20:57:00 10° N
H-2A R/B 3.2 20:51:55 10° NNE 20:55:45 30° E 20:58:35 15° SSE
EXPRESS MD2 3.7 20:56:00 10° WSW 20:56:56 18° SW 20:56:56 18° SW
Okean 2 Rocket 3.8 20:54:05 10° N 20:58:26 48° ENE 21:02:11 13° SE
ALOS 2 2.9 20:55:20 17° S 20:58:38 60° WSW 21:03:01 10° NNW
CZ-4C R/B 3.0 20:57:22 17° SSE 21:00:11 29° ESE 21:05:02 10° ENE
Cosmos 2227 Rocket 3.9 20:56:48 11° SE 21:00:29 20° E 21:04:27 10° NE
Cosmos 1980 3.7 20:57:09 10° NW 21:02:51 85° WSW 21:07:57 13° SSE
Cosmos 371 Rocket 3.8 20:59:56 17° S 21:03:21 46° ESE 21:07:59 10° NE
Cosmos 1709 Rocket 4.1 21:00:29 15° S 21:06:00 87° E 21:12:24 10° NNE
NOSS 0 Rocket 4.2 21:03:41 10° NW 21:09:47 57° WSW 21:14:46 16° S
Cosmos 1703 3.1 21:10:09 19° S 21:12:43 78° E 21:16:25 10° NNE
Cosmos 1674 Rocket 4.4 21:12:35 16° SSE 21:15:43 39° E 21:19:47 10° NNE
USA 234 3.5 21:10:27 10° ENE 21:17:00 77° N 21:23:32 10° W
Cosmos 1378 Rocket 4.1 21:14:45 17° SSE 21:17:51 47° E 21:22:06 10° NNE
Cosmos 2221 Rocket 4.5 21:15:27 15° SSE 21:18:43 39° E 21:22:52 10° NNE
Meteor 2-5 Rocket 3.9 21:15:20 16° S 21:20:10 76° E 21:26:01 10° NNE
Cosmos 2297 Rocket 2.7 21:16:08 16° S 21:20:17 44° ESE 21:25:38 10° NE
Sich 1 Rocket 3.7 21:16:03 10° N 21:20:29 74° ENE 21:23:55 16° SSE
GEOS 3 Rocket 4.4 21:17:10 10° ENE 21:21:50 33° ESE 21:25:10 17° S
Cosmos 2242 Rocket 3.9 21:20:05 15° SSW 21:23:50 66° WNW 21:28:24 10° N
Cosmos 773 Rocket 4.3 21:21:37 10° NW 21:26:38 53° WSW 21:30:28 17° S
BREEZE-M DEB (TANK) 3.3 21:18:16 10° W 21:27:33 46° SSW 21:30:42 10° SE
CENTAUR R/B 3.9 21:25:39 12° SSE 21:29:26 22° ESE 21:34:29 10° ENE
COSMOS 2428 3.8 21:25:01 10° NW 21:29:53 30° WSW 21:33:47 15° SSW
SL-4 R/B 2.7 21:29:44 10° W 21:33:24 33° SSW 21:37:15 10° SE
COSMOS 2455 2.9 21:29:10 13° SSW 21:34:28 66° SE 21:40:28 10° NE
Cosmos 2098 Rocket 4.3 21:27:59 10° NNW 21:34:28 65° W 21:39:49 16° S
Cosmos 1892 3.0 21:32:49 19° SSE 21:35:06 48° E 21:38:31 10° NNE
Cosmos 2219 Rocket 4.2 21:32:32 10° WNW 21:35:32 15° W 21:38:32 10° SW
Cosmos 1538 Rocket 4.4 21:31:57 10° NNW 21:37:07 63° ENE 21:42:18 10° SE
Cosmos 1503 Rocket 4.1 21:35:27 16° SSW 21:39:43 69° ESE 21:45:00 10° NNE
NOSS 8 (F) 4.2 21:37:17 13° SW 21:40:21 71° SE 21:43:20 10° NE
Cosmos 1777 Rocket 4.2 21:38:28 16° S 21:42:35 62° ESE 21:47:49 10° NNE
ATLAS CENTAUR R/B 3.1 21:40:39 10° W 21:43:49 29° NNW 21:47:08 10° NE
GENESIS II 4.2 21:41:25 10° SW 21:45:04 74° NW 21:48:44 10° NE
SJ 16-02 3.7 21:43:10 10° W 21:46:27 21° NW 21:49:44 10° N
PSLV R/B 3.9 21:47:50 10° N 21:52:04 61° WNW 21:55:30 15° SSW
Cosmos 332 Rocket 4.2 21:52:44 16° S 21:56:24 52° ESE 22:01:10 10° NE
Cosmos 2263 Rocket 3.9 21:52:27 10° SSE 21:56:28 21° ESE 22:00:32 10° NE
Cosmos 304 Rocket 3.8 21:52:46 14° SSW 21:56:49 82° WNW 22:01:37 10° NNE
Cosmos 2181 Rocket 4.4 21:53:45 10° NNW 21:59:46 52° W 22:04:45 15° SSW
Resurs 1-4 Rocket 4.3 21:57:18 10° NE 22:00:23 15° E 22:03:26 10° ESE
Okean 1 Rocket 3.1 21:58:17 10° NNW 22:02:37 69° W 22:06:00 16° S
Helios 1A Rocket 2.9 22:11:17 12° SSE 22:14:47 75° ENE 22:18:36 10° NNW
Cosmos 1825 2.1 22:13:44 18° SSW 22:16:11 65° WNW 22:19:36 10° N
Cosmos 2074 Rocket 4.1 22:14:24 14° SSW 22:19:46 78° WNW 22:26:02 10° N
Cosmos 1354 Rocket 4.1 22:15:41 13° SSW 22:20:24 81° WNW 22:25:44 10° NNE
Cosmos 1606 3.9 22:19:14 10° N 22:22:34 36° ENE 22:25:54 10° SE
SL-16 R/B 2.2 22:20:11 10° NW 22:25:53 70° WSW 22:31:32 10° SSE
BREEZE-M DEB (TANK) 2.2 22:25:35 10° W 22:27:22 22° SSW 22:27:41 21° S
BlueWalker 3 2.0 22:25:10 10° WSW 22:28:49 54° SSE 22:32:30 10° E
H-2A R/B 3.0 22:27:30 10° N 22:31:33 40° WNW 22:35:22 11° SW
Cosmos 1975 Rocket 3.7 22:28:30 12° SSE 22:32:21 51° E 22:36:38 10° NNE
Cosmos 2237 Rocket 3.5 22:29:00 10° NW 22:33:29 25° WSW 22:37:15 13° SSW
SL-19 R/B 3.8 22:36:48 10° NNE 22:39:59 66° ESE 22:42:13 16° S
Cosmos 1455 Rocket 3.2 22:36:52 10° NNW 22:41:16 65° W 22:45:15 13° S
Cosmos 1943 3.6 22:36:26 10° NNW 22:42:04 65° NE 22:47:39 10° SE
Cosmos 1328 4.1 22:39:39 14° SSW 22:42:48 56° WNW 22:46:40 10° N
Cosmos 1818 3.6 22:37:46 10° NW 22:43:17 83° SW 22:48:45 10° SE
Cosmos 2227 Rocket 2.2 22:38:36 13° SSW 22:43:46 87° ESE 22:49:29 10° NE
Orbus 7S? 2.7 22:42:21 10° WNW 22:44:58 56° SSW 22:48:19 10° SE
Meteor 1-21 Rocket 4.3 22:42:07 13° SSW 22:47:23 89° ESE 22:53:06 10° NNE
CZ-4C R/B 2.3 22:43:06 10° WSW 22:47:58 73° NW 22:54:17 10° NE
Cosmos 1680 Rocket 3.7 22:42:54 10° NNW 22:48:09 78° ENE 22:53:21 10° SSE
BREEZE-M DEB (TANK) 4.4 22:45:56 10° WSW 22:49:20 51° SSE 22:59:20 10° E
Cosmos 1869 3.3 22:45:54 10° N 22:49:37 70° ENE 22:53:19 10° SSE
Cosmos 2112 Rocket 4.3 22:44:32 10° NNW 22:49:45 71° ENE 22:54:55 10° SE
MOZ.5/SAFIR/RUBIN 5/SL-8 3.8 22:49:28 10° S 22:54:06 74° WSW 22:58:45 10° NNW
CZ-2C R/B 3.0 22:49:43 10° SSE 22:54:58 68° ENE 23:00:21 10° NNW
Cosmos 2084 Rocket 3.3 22:51:58 11° SW 22:56:07 82° SE 23:00:13 10° NE
CZ-2D R/B 3.3 22:52:14 10° NNE 22:57:13 37° E 23:02:06 10° SSE
IDEFIX/ARIANE 42P 3.3 22:52:39 10° NNE 22:57:46 49° E 23:02:49 10° S
CZ-2C R/B 4.5 22:53:25 10° NNE 22:58:25 34° E 23:03:10 10° SSE
Cosmos 2218 Rocket 4.4 22:53:17 10° S 22:59:24 61° E 23:05:29 10° NNE
USA 234 3.4 22:53:22 10° E 22:59:56 82° NNE 23:06:31 10° WNW
GEOS 3 Rocket 3.8 22:55:01 10° NE 23:00:13 74° NW 23:05:19 10° WSW
Cosmos 2297 Rocket 3.0 22:58:54 10° WSW 23:04:21 48° NW 23:09:50 10° NNE
Cosmos 2219 3.3 22:59:15 12° SSW 23:04:31 75° ESE 23:10:09 10° NE
Cosmos 1025 Rocket 3.6 23:01:49 12° SW 23:05:43 47° WNW 23:09:55 10° N
Cosmos 2366 rocket 4.2 23:01:58 10° S 23:08:14 71° E 23:14:27 10° NNE
NPP 4.1 23:05:10 10° NNE 23:10:32 59° ESE 23:15:51 10° S
SL-4 R/B 4.0 23:09:52 10° WSW 23:11:20 12° SW 23:12:04 11° SSW
Meteor 2-1 Rocket 4.5 23:05:57 10° NNW 23:11:48 62° W 23:17:33 10° S
Cosmos 990 Rocket 4.2 23:08:39 10° SW 23:13:41 67° WNW 23:18:50 10° NNE
NOSS 3 (A) 4.3 23:12:25 11° WSW 23:13:46 36° NW 23:15:24 10° NE
CENTAUR R/B 2.7 23:12:52 10° SW 23:18:50 79° SE 23:26:20 10° NE
ALOS 4.2 23:16:53 10° NE 23:20:35 23° E 23:24:17 10° SE
COSMOS 2455 3.9 23:15:01 10° WSW 23:20:45 43° NNW 23:26:32 10° NE
Aureole 1 Rocket 2.9 23:18:43 11° SSW 23:22:12 80° WNW 23:26:51 10° NNE
ATLAS CENTAUR R/B 4.0 23:19:52 10° NW 23:22:30 18° N 23:25:13 10° NE
SL-16 R/B 3.0 23:17:56 10° SE 23:24:06 66° ENE 23:30:17 10° NNW
ADEOS II 3.0 23:25:58 10° NNE 23:31:02 46° E 23:36:04 10° S
COBE Rocket 4.2 23:28:32 10° N 23:33:39 70° WNW 23:38:47 10° SSW
Cosmos 292 Rocket 3.9 23:29:18 10° SW 23:34:05 71° WNW 23:38:54 10° NNE
Meteor 1-27 4.3 23:32:11 10° NNW 23:38:05 83° WSW 23:43:53 10° S
Cosmos 2263 Rocket 2.2 23:34:07 10° SSW 23:39:43 88° NW 23:45:20 10° NNE
SL-8 Rocket 4.1 23:34:26 10° SSW 23:40:34 67° WNW 23:46:47 10° N
Resurs 1-4 Rocket 2.3 23:35:45 10° NNE 23:41:04 78° ESE 23:46:21 10° SSW
MSX 3.9 23:35:19 10° NNE 23:41:05 85° ESE 23:46:50 10° SSW
Cosmos 494 Rocket 4.1 23:41:39 10° NNW 23:46:55 88° WSW 23:52:11 10° SSE
Cosmos 372 Rocket 4.1 23:44:46 10° SSW 23:50:01 78° WNW 23:55:16 10° NNE
Cosmos 1461 3.3 23:47:12 10° SSW 23:51:02 49° SE 23:54:48 10° NE
Cosmos 1727 Rocket 4.1 23:45:31 10° NNW 23:51:50 74° W 23:58:09 10° S
ASTEX 1 3.7 23:47:02 10° SSE 23:51:52 73° E 23:56:45 10° N
